<?xml version="1.0" encoding="UTF-8" standalone="no" ?>
<gpx xmlns="http://www.topografix.com/GPX/1/1" xmlns:xsi="http://www.w3.org/2001/XMLSchema-instance" xsi:schemaLocation="http://www.topografix.com/GPX/1/1 http://www.topografix.com/GPX/1/1/gpx.xsd" version="1.1" creator="VisuGPX - https://www.visugpx.com">
  <metadata>
    <name>Ajaccio-Bastia - Etape4</name>
    <desc><![CDATA[Ajaccio-Bastia - Etape4]]></desc>
  </metadata>
  <trk>
    <name><![CDATA[Jour 04 - TraceGps.com issued]]></name>
    <trkseg>
      <trkpt lat="41.77182" lon="9.14295">
        <ele>883</ele>
        <time>2003-07-21T21:35:24Z</time>
      </trkpt>
      <trkpt lat="41.77184" lon="9.14268">
        <ele>883</ele>
        <time>2003-07-21T21:35:24Z</time>
      </trkpt>
      <trkpt lat="41.77253" lon="9.14363">
        <ele>881</ele>
        <time>2003-07-21T21:35:24Z</time>
      </trkpt>
      <trkpt lat="41.77261" lon="9.14442">
        <ele>874</ele>
        <time>2003-07-21T21:35:24Z</time>
      </trkpt>
      <trkpt lat="41.77331" lon="9.14329">
        <ele>873</ele>
        <time>2003-07-21T21:35:24Z</time>
      </trkpt>
      <trkpt lat="41.7694" lon="9.13925">
        <ele>852</ele>
        <time>2003-07-21T21:35:24Z</time>
      </trkpt>
      <trkpt lat="41.76665" lon="9.13621">
        <ele>825</ele>
        <time>2003-07-21T21:35:24Z</time>
      </trkpt>
      <trkpt lat="41.7693" lon="9.13634">
        <ele>811</ele>
        <time>2003-07-21T21:35:24Z</time>
      </trkpt>
      <trkpt lat="41.77299" lon="9.1336">
        <ele>831</ele>
        <time>2003-07-21T21:35:24Z</time>
      </trkpt>
      <trkpt lat="41.7761" lon="9.1371">
        <ele>856</ele>
        <time>2003-07-21T21:35:24Z</time>
      </trkpt>
      <trkpt lat="41.77954" lon="9.13502">
        <ele>863</ele>
        <time>2003-07-21T21:35:24Z</time>
      </trkpt>
      <trkpt lat="41.77532" lon="9.12824">
        <ele>914</ele>
        <time>2003-07-21T21:35:24Z</time>
      </trkpt>
      <trkpt lat="41.77746" lon="9.12638">
        <ele>922</ele>
        <time>2003-07-21T21:35:24Z</time>
      </trkpt>
      <trkpt lat="41.77954" lon="9.12673">
        <ele>957</ele>
        <time>2003-07-21T21:35:24Z</time>
      </trkpt>
      <trkpt lat="41.7797" lon="9.123">
        <ele>981</ele>
        <time>2003-07-21T21:35:24Z</time>
      </trkpt>
      <trkpt lat="41.7806" lon="9.11951">
        <ele>1024</ele>
        <time>2003-07-21T21:35:24Z</time>
      </trkpt>
      <trkpt lat="41.7824" lon="9.1181">
        <ele>1040</ele>
        <time>2003-07-21T21:35:24Z</time>
      </trkpt>
      <trkpt lat="41.78282" lon="9.11938">
        <ele>1062</ele>
        <time>2003-07-21T21:35:24Z</time>
      </trkpt>
      <trkpt lat="41.78226" lon="9.12249">
        <ele>1092</ele>
        <time>2003-07-21T21:35:24Z</time>
      </trkpt>
      <trkpt lat="41.78419" lon="9.12635">
        <ele>1113</ele>
        <time>2003-07-21T21:35:24Z</time>
      </trkpt>
      <trkpt lat="41.79079" lon="9.12826">
        <ele>1147</ele>
        <time>2003-07-21T21:35:24Z</time>
      </trkpt>
      <trkpt lat="41.79487" lon="9.13394">
        <ele>1138</ele>
        <time>2003-07-21T21:35:24Z</time>
      </trkpt>
      <trkpt lat="41.79611" lon="9.13329">
        <ele>1164</ele>
        <time>2003-07-21T21:35:24Z</time>
      </trkpt>
      <trkpt lat="41.79713" lon="9.13358">
        <ele>1178</ele>
        <time>2003-07-21T21:35:24Z</time>
      </trkpt>
      <trkpt lat="41.79753" lon="9.1345">
        <ele>1182</ele>
        <time>2003-07-21T21:35:24Z</time>
      </trkpt>
      <trkpt lat="41.79774" lon="9.13389">
        <ele>1191</ele>
        <time>2003-07-21T21:35:24Z</time>
      </trkpt>
      <trkpt lat="41.79895" lon="9.13489">
        <ele>1207</ele>
        <time>2003-07-21T21:35:24Z</time>
      </trkpt>
      <trkpt lat="41.79975" lon="9.13914">
        <ele>1223</ele>
        <time>2003-07-21T21:35:24Z</time>
      </trkpt>
      <trkpt lat="41.80204" lon="9.14089">
        <ele>1261</ele>
        <time>2003-07-21T21:35:24Z</time>
      </trkpt>
      <trkpt lat="41.8028" lon="9.14076">
        <ele>1267</ele>
        <time>2003-07-21T21:35:24Z</time>
      </trkpt>
      <trkpt lat="41.80247" lon="9.14061">
        <ele>1272</ele>
        <time>2003-07-21T21:35:24Z</time>
      </trkpt>
      <trkpt lat="41.80309" lon="9.14001">
        <ele>1279</ele>
        <time>2003-07-21T21:35:24Z</time>
      </trkpt>
      <trkpt lat="41.80573" lon="9.13471">
        <ele>1344</ele>
        <time>2003-07-21T21:35:24Z</time>
      </trkpt>
      <trkpt lat="41.80331" lon="9.13216">
        <ele>1365</ele>
        <time>2003-07-21T21:35:24Z</time>
      </trkpt>
      <trkpt lat="41.80439" lon="9.13149">
        <ele>1387</ele>
        <time>2003-07-21T21:35:24Z</time>
      </trkpt>
      <trkpt lat="41.80991" lon="9.13401">
        <ele>1436</ele>
        <time>2003-07-21T21:35:24Z</time>
      </trkpt>
      <trkpt lat="41.81616" lon="9.13857">
        <ele>1480</ele>
        <time>2003-07-21T21:35:24Z</time>
      </trkpt>
      <trkpt lat="41.81938" lon="9.13988">
        <ele>1515</ele>
        <time>2003-07-21T21:35:24Z</time>
      </trkpt>
      <trkpt lat="41.82354" lon="9.14207">
        <ele>1529</ele>
        <time>2003-07-21T21:35:24Z</time>
      </trkpt>
      <trkpt lat="41.82516" lon="9.14593">
        <ele>1538</ele>
        <time>2003-07-21T21:35:24Z</time>
      </trkpt>
      <trkpt lat="41.82983" lon="9.14833">
        <ele>1559</ele>
        <time>2003-07-21T21:35:24Z</time>
      </trkpt>
      <trkpt lat="41.83094" lon="9.15204">
        <ele>1555</ele>
        <time>2003-07-21T21:35:24Z</time>
      </trkpt>
      <trkpt lat="41.83362" lon="9.15435">
        <ele>1563</ele>
        <time>2003-07-21T21:35:24Z</time>
      </trkpt>
      <trkpt lat="41.83429" lon="9.15678">
        <ele>1569</ele>
        <time>2003-07-21T21:35:24Z</time>
      </trkpt>
      <trkpt lat="41.8409" lon="9.1644">
        <ele>1598</ele>
        <time>2003-07-21T21:35:24Z</time>
      </trkpt>
      <trkpt lat="41.84309" lon="9.16772">
        <ele>1602</ele>
        <time>2003-07-21T21:35:24Z</time>
      </trkpt>
      <trkpt lat="41.84402" lon="9.16966">
        <ele>1618</ele>
        <time>2003-07-21T21:35:24Z</time>
      </trkpt>
      <trkpt lat="41.84823" lon="9.17126">
        <ele>1640</ele>
        <time>2003-07-21T21:35:24Z</time>
      </trkpt>
      <trkpt lat="41.85131" lon="9.17147">
        <ele>1627</ele>
        <time>2003-07-21T21:35:24Z</time>
      </trkpt>
      <trkpt lat="41.85075" lon="9.16736">
        <ele>1593</ele>
        <time>2003-07-21T21:35:24Z</time>
      </trkpt>
      <trkpt lat="41.85537" lon="9.16701">
        <ele>1557</ele>
        <time>2003-07-21T21:35:24Z</time>
      </trkpt>
      <trkpt lat="41.86522" lon="9.17229">
        <ele>1541</ele>
        <time>2003-07-21T21:35:24Z</time>
      </trkpt>
      <trkpt lat="41.866" lon="9.17051">
        <ele>1532</ele>
        <time>2003-07-21T21:35:24Z</time>
      </trkpt>
      <trkpt lat="41.86333" lon="9.16321">
        <ele>1478</ele>
        <time>2003-07-21T21:35:24Z</time>
      </trkpt>
      <trkpt lat="41.86454" lon="9.1602">
        <ele>1466</ele>
        <time>2003-07-21T21:35:24Z</time>
      </trkpt>
      <trkpt lat="41.86831" lon="9.16072">
        <ele>1457</ele>
        <time>2003-07-21T21:35:24Z</time>
      </trkpt>
      <trkpt lat="41.86722" lon="9.15771">
        <ele>1442</ele>
        <time>2003-07-21T21:35:24Z</time>
      </trkpt>
      <trkpt lat="41.87273" lon="9.15618">
        <ele>1427</ele>
        <time>2003-07-21T21:35:24Z</time>
      </trkpt>
      <trkpt lat="41.8751" lon="9.15057">
        <ele>1409</ele>
        <time>2003-07-21T21:35:24Z</time>
      </trkpt>
      <trkpt lat="41.87845" lon="9.15353">
        <ele>1372</ele>
        <time>2003-07-21T21:35:24Z</time>
      </trkpt>
      <trkpt lat="41.87987" lon="9.15314">
        <ele>1370</ele>
        <time>2003-07-21T21:35:24Z</time>
      </trkpt>
      <trkpt lat="41.88027" lon="9.14944">
        <ele>1368</ele>
        <time>2003-07-21T21:35:24Z</time>
      </trkpt>
      <trkpt lat="41.88603" lon="9.15289">
        <ele>1360</ele>
        <time>2003-07-21T21:35:24Z</time>
      </trkpt>
      <trkpt lat="41.88678" lon="9.15164">
        <ele>1356</ele>
        <time>2003-07-21T21:35:24Z</time>
      </trkpt>
      <trkpt lat="41.88455" lon="9.14512">
        <ele>1318</ele>
        <time>2003-07-21T21:35:24Z</time>
      </trkpt>
      <trkpt lat="41.88513" lon="9.1444">
        <ele>1309</ele>
        <time>2003-07-21T21:35:24Z</time>
      </trkpt>
      <trkpt lat="41.88175" lon="9.14277">
        <ele>1293</ele>
        <time>2003-07-21T21:35:24Z</time>
      </trkpt>
      <trkpt lat="41.87943" lon="9.14318">
        <ele>1280</ele>
        <time>2003-07-21T21:35:24Z</time>
      </trkpt>
      <trkpt lat="41.87941" lon="9.14046">
        <ele>1271</ele>
        <time>2003-07-21T21:35:24Z</time>
      </trkpt>
      <trkpt lat="41.87932" lon="9.13737">
        <ele>1258</ele>
        <time>2003-07-21T21:35:24Z</time>
      </trkpt>
      <trkpt lat="41.87578" lon="9.13318">
        <ele>1244</ele>
        <time>2003-07-21T21:35:24Z</time>
      </trkpt>
      <trkpt lat="41.87444" lon="9.12905">
        <ele>1219</ele>
        <time>2003-07-21T21:35:24Z</time>
      </trkpt>
      <trkpt lat="41.87069" lon="9.12231">
        <ele>1198</ele>
        <time>2003-07-21T21:35:24Z</time>
      </trkpt>
      <trkpt lat="41.87138" lon="9.12051">
        <ele>1205</ele>
        <time>2003-07-21T21:35:24Z</time>
      </trkpt>
      <trkpt lat="41.86896" lon="9.11729">
        <ele>1226</ele>
        <time>2003-07-21T21:35:24Z</time>
      </trkpt>
      <trkpt lat="41.86973" lon="9.11193">
        <ele>1213</ele>
        <time>2003-07-21T21:35:24Z</time>
      </trkpt>
      <trkpt lat="41.86917" lon="9.10765">
        <ele>1210</ele>
        <time>2003-07-21T21:35:24Z</time>
      </trkpt>
      <trkpt lat="41.86317" lon="9.10677">
        <ele>1181</ele>
        <time>2003-07-21T21:35:24Z</time>
      </trkpt>
      <trkpt lat="41.85968" lon="9.10168">
        <ele>1125</ele>
        <time>2003-07-21T21:35:24Z</time>
      </trkpt>
      <trkpt lat="41.85511" lon="9.10108">
        <ele>1095</ele>
        <time>2003-07-21T21:35:24Z</time>
      </trkpt>
      <trkpt lat="41.85525" lon="9.09862">
        <ele>1069</ele>
        <time>2003-07-21T21:35:24Z</time>
      </trkpt>
      <trkpt lat="41.85597" lon="9.09881">
        <ele>1054</ele>
        <time>2003-07-21T21:35:24Z</time>
      </trkpt>
      <trkpt lat="41.85589" lon="9.10007">
        <ele>1066</ele>
        <time>2003-07-21T21:35:24Z</time>
      </trkpt>
      <trkpt lat="41.85801" lon="9.10006">
        <ele>1065</ele>
        <time>2003-07-21T21:35:24Z</time>
      </trkpt>
      <trkpt lat="41.85837" lon="9.09937">
        <ele>1059</ele>
        <time>2003-07-21T21:35:24Z</time>
      </trkpt>
      <trkpt lat="41.8606" lon="9.09828">
        <ele>1043</ele>
        <time>2003-07-21T21:35:24Z</time>
      </trkpt>
      <trkpt lat="41.86094" lon="9.10025">
        <ele>1053</ele>
        <time>2003-07-21T21:35:24Z</time>
      </trkpt>
      <trkpt lat="41.86363" lon="9.10047">
        <ele>1034</ele>
        <time>2003-07-21T21:35:24Z</time>
      </trkpt>
      <trkpt lat="41.87088" lon="9.09786">
        <ele>1004</ele>
        <time>2003-07-21T21:35:24Z</time>
      </trkpt>
      <trkpt lat="41.87207" lon="9.0998">
        <ele>993</ele>
        <time>2003-07-21T21:35:24Z</time>
      </trkpt>
      <trkpt lat="41.87871" lon="9.10824">
        <ele>952</ele>
        <time>2003-07-21T21:35:24Z</time>
      </trkpt>
      <trkpt lat="41.87566" lon="9.11087">
        <ele>933</ele>
        <time>2003-07-21T21:35:24Z</time>
      </trkpt>
      <trkpt lat="41.87733" lon="9.11317">
        <ele>934</ele>
        <time>2003-07-21T21:35:24Z</time>
      </trkpt>
      <trkpt lat="41.87883" lon="9.11381">
        <ele>919</ele>
        <time>2003-07-21T21:35:24Z</time>
      </trkpt>
      <trkpt lat="41.87903" lon="9.11649">
        <ele>919</ele>
        <time>2003-07-21T21:35:24Z</time>
      </trkpt>
      <trkpt lat="41.88022" lon="9.11547">
        <ele>897</ele>
        <time>2003-07-21T21:35:24Z</time>
      </trkpt>
      <trkpt lat="41.88726" lon="9.117">
        <ele>874</ele>
        <time>2003-07-21T21:35:24Z</time>
      </trkpt>
      <trkpt lat="41.89113" lon="9.12116">
        <ele>854</ele>
        <time>2003-07-21T21:35:24Z</time>
      </trkpt>
      <trkpt lat="41.89306" lon="9.12355">
        <ele>843</ele>
        <time>2003-07-21T21:35:24Z</time>
      </trkpt>
      <trkpt lat="41.89865" lon="9.12674">
        <ele>810</ele>
        <time>2003-07-21T21:35:24Z</time>
      </trkpt>
      <trkpt lat="41.8987" lon="9.12965">
        <ele>803</ele>
        <time>2003-07-21T21:35:24Z</time>
      </trkpt>
      <trkpt lat="41.90065" lon="9.13191">
        <ele>787</ele>
        <time>2003-07-21T21:35:24Z</time>
      </trkpt>
      <trkpt lat="41.90064" lon="9.13505">
        <ele>778</ele>
        <time>2003-07-21T21:35:24Z</time>
      </trkpt>
      <trkpt lat="41.90467" lon="9.13113">
        <ele>752</ele>
        <time>2003-07-21T21:35:24Z</time>
      </trkpt>
      <trkpt lat="41.90723" lon="9.13201">
        <ele>741</ele>
        <time>2003-07-21T21:35:24Z</time>
      </trkpt>
      <trkpt lat="41.90958" lon="9.13051">
        <ele>728</ele>
        <time>2003-07-21T21:35:24Z</time>
      </trkpt>
      <trkpt lat="41.91314" lon="9.13031">
        <ele>735</ele>
        <time>2003-07-21T21:35:24Z</time>
      </trkpt>
      <trkpt lat="41.91463" lon="9.13331">
        <ele>747</ele>
        <time>2003-07-21T21:35:24Z</time>
      </trkpt>
      <trkpt lat="41.91755" lon="9.13399">
        <ele>745</ele>
        <time>2003-07-21T21:35:24Z</time>
      </trkpt>
      <trkpt lat="41.91888" lon="9.137">
        <ele>747</ele>
        <time>2003-07-21T21:35:24Z</time>
      </trkpt>
      <trkpt lat="41.92049" lon="9.13962">
        <ele>746</ele>
        <time>2003-07-21T21:35:24Z</time>
      </trkpt>
      <trkpt lat="41.92475" lon="9.14053">
        <ele>743</ele>
        <time>2003-07-21T21:35:24Z</time>
      </trkpt>
      <trkpt lat="41.92589" lon="9.14326">
        <ele>746</ele>
        <time>2003-07-21T21:35:24Z</time>
      </trkpt>
      <trkpt lat="41.93006" lon="9.14799">
        <ele>730</ele>
        <time>2003-07-21T21:35:24Z</time>
      </trkpt>
      <trkpt lat="41.93065" lon="9.14987">
        <ele>737</ele>
        <time>2003-07-21T21:35:24Z</time>
      </trkpt>
      <trkpt lat="41.93473" lon="9.15515">
        <ele>735</ele>
        <time>2003-07-21T21:35:24Z</time>
      </trkpt>
      <trkpt lat="41.93513" lon="9.15943">
        <ele>731</ele>
        <time>2003-07-21T21:35:24Z</time>
      </trkpt>
      <trkpt lat="41.93373" lon="9.16136">
        <ele>772</ele>
        <time>2003-07-21T21:35:24Z</time>
      </trkpt>
      <trkpt lat="41.93339" lon="9.16181">
        <ele>777</ele>
        <time>2003-07-21T21:35:24Z</time>
      </trkpt>
      <trkpt lat="41.9335" lon="9.16224">
        <ele>791</ele>
        <time>2003-07-21T21:35:24Z</time>
      </trkpt>
      <trkpt lat="41.93405" lon="9.16212">
        <ele>799</ele>
        <time>2003-07-21T21:35:24Z</time>
      </trkpt>
      <trkpt lat="41.93349" lon="9.16276">
        <ele>805</ele>
        <time>2003-07-21T21:35:24Z</time>
      </trkpt>
      <trkpt lat="41.93434" lon="9.16243">
        <ele>812</ele>
        <time>2003-07-21T21:35:24Z</time>
      </trkpt>
      <trkpt lat="41.93391" lon="9.16335">
        <ele>825</ele>
        <time>2003-07-21T21:35:24Z</time>
      </trkpt>
      <trkpt lat="41.93425" lon="9.16356">
        <ele>832</ele>
        <time>2003-07-21T21:35:24Z</time>
      </trkpt>
      <trkpt lat="41.93469" lon="9.16276">
        <ele>826</ele>
        <time>2003-07-21T21:35:24Z</time>
      </trkpt>
      <trkpt lat="41.9382" lon="9.16477">
        <ele>868</ele>
        <time>2003-07-21T21:35:24Z</time>
      </trkpt>
      <trkpt lat="41.93572" lon="9.16472">
        <ele>882</ele>
        <time>2003-07-21T21:35:24Z</time>
      </trkpt>
      <trkpt lat="41.93549" lon="9.16554">
        <ele>899</ele>
        <time>2003-07-21T21:35:24Z</time>
      </trkpt>
      <trkpt lat="41.93605" lon="9.16518">
        <ele>892</ele>
        <time>2003-07-21T21:35:24Z</time>
      </trkpt>
      <trkpt lat="41.93804" lon="9.16669">
        <ele>932</ele>
        <time>2003-07-21T21:35:24Z</time>
      </trkpt>
      <trkpt lat="41.93861" lon="9.1663">
        <ele>918</ele>
        <time>2003-07-21T21:35:24Z</time>
      </trkpt>
      <trkpt lat="41.93952" lon="9.1683">
        <ele>938</ele>
        <time>2003-07-21T21:35:24Z</time>
      </trkpt>
      <trkpt lat="41.93915" lon="9.16932">
        <ele>951</ele>
        <time>2003-07-21T21:35:24Z</time>
      </trkpt>
      <trkpt lat="41.93895" lon="9.16851">
        <ele>959</ele>
        <time>2003-07-21T21:35:24Z</time>
      </trkpt>
      <trkpt lat="41.93848" lon="9.16913">
        <ele>970</ele>
        <time>2003-07-21T21:35:24Z</time>
      </trkpt>
      <trkpt lat="41.93821" lon="9.16995">
        <ele>978</ele>
        <time>2003-07-21T21:35:24Z</time>
      </trkpt>
      <trkpt lat="41.93937" lon="9.17234">
        <ele>980</ele>
        <time>2003-07-21T21:35:24Z</time>
      </trkpt>
      <trkpt lat="41.94257" lon="9.17734">
        <ele>1010</ele>
        <time>2003-07-21T21:35:24Z</time>
      </trkpt>
      <trkpt lat="41.94305" lon="9.18139">
        <ele>1042</ele>
        <time>2003-07-21T21:35:24Z</time>
      </trkpt>
      <trkpt lat="41.94081" lon="9.17806">
        <ele>1058</ele>
        <time>2003-07-21T21:35:24Z</time>
      </trkpt>
      <trkpt lat="41.94183" lon="9.18334">
        <ele>1097</ele>
        <time>2003-07-21T21:35:24Z</time>
      </trkpt>
      <trkpt lat="41.93911" lon="9.18459">
        <ele>1116</ele>
        <time>2003-07-21T21:35:24Z</time>
      </trkpt>
      <trkpt lat="41.93702" lon="9.18452">
        <ele>1136</ele>
        <time>2003-07-21T21:35:24Z</time>
      </trkpt>
      <trkpt lat="41.9382" lon="9.18585">
        <ele>1137</ele>
        <time>2003-07-21T21:35:24Z</time>
      </trkpt>
      <trkpt lat="41.93819" lon="9.18758">
        <ele>1131</ele>
        <time>2003-07-21T21:35:24Z</time>
      </trkpt>
      <trkpt lat="41.94087" lon="9.18962">
        <ele>1112</ele>
        <time>2003-07-21T21:35:24Z</time>
      </trkpt>
      <trkpt lat="41.9452" lon="9.19081">
        <ele>1133</ele>
        <time>2003-07-21T21:35:24Z</time>
      </trkpt>
      <trkpt lat="41.94555" lon="9.19291">
        <ele>1155</ele>
        <time>2003-07-21T21:35:24Z</time>
      </trkpt>
      <trkpt lat="41.94829" lon="9.19499">
        <ele>1167</ele>
        <time>2003-07-21T21:35:24Z</time>
      </trkpt>
      <trkpt lat="41.94551" lon="9.19384">
        <ele>1179</ele>
        <time>2003-07-21T21:35:24Z</time>
      </trkpt>
      <trkpt lat="41.94508" lon="9.19428">
        <ele>1192</ele>
        <time>2003-07-21T21:35:24Z</time>
      </trkpt>
      <trkpt lat="41.94444" lon="9.19294">
        <ele>1180</ele>
        <time>2003-07-21T21:35:24Z</time>
      </trkpt>
      <trkpt lat="41.94451" lon="9.19437">
        <ele>1200</ele>
        <time>2003-07-21T21:35:24Z</time>
      </trkpt>
      <trkpt lat="41.95143" lon="9.19838">
        <ele>1244</ele>
        <time>2003-07-21T21:35:24Z</time>
      </trkpt>
      <trkpt lat="41.95265" lon="9.19915">
        <ele>1239</ele>
        <time>2003-07-21T21:35:24Z</time>
      </trkpt>
      <trkpt lat="41.95144" lon="9.20077">
        <ele>1240</ele>
        <time>2003-07-21T21:35:24Z</time>
      </trkpt>
      <trkpt lat="41.95243" lon="9.20197">
        <ele>1235</ele>
        <time>2003-07-21T21:35:24Z</time>
      </trkpt>
      <trkpt lat="41.95304" lon="9.2024">
        <ele>1222</ele>
        <time>2003-07-21T21:35:24Z</time>
      </trkpt>
      <trkpt lat="41.95489" lon="9.20574">
        <ele>1205</ele>
        <time>2003-07-21T21:35:24Z</time>
      </trkpt>
      <trkpt lat="41.9558" lon="9.20866">
        <ele>1186</ele>
        <time>2003-07-21T21:35:24Z</time>
      </trkpt>
      <trkpt lat="41.95542" lon="9.20934">
        <ele>1205</ele>
        <time>2003-07-21T21:35:24Z</time>
      </trkpt>
      <trkpt lat="41.95689" lon="9.20959">
        <ele>1190</ele>
        <time>2003-07-21T21:35:24Z</time>
      </trkpt>
      <trkpt lat="41.96079" lon="9.21131">
        <ele>1168</ele>
        <time>2003-07-21T21:35:24Z</time>
      </trkpt>
      <trkpt lat="41.96207" lon="9.21145">
        <ele>1157</ele>
        <time>2003-07-21T21:35:24Z</time>
      </trkpt>
      <trkpt lat="41.96224" lon="9.21229">
        <ele>1168</ele>
        <time>2003-07-21T21:35:24Z</time>
      </trkpt>
      <trkpt lat="41.9641" lon="9.21152">
        <ele>1139</ele>
        <time>2003-07-21T21:35:24Z</time>
      </trkpt>
      <trkpt lat="41.96454" lon="9.21123">
        <ele>1140</ele>
        <time>2003-07-21T21:35:24Z</time>
      </trkpt>
      <trkpt lat="41.96507" lon="9.21184">
        <ele>1138</ele>
        <time>2003-07-21T21:35:24Z</time>
      </trkpt>
      <trkpt lat="41.96465" lon="9.21276">
        <ele>1142</ele>
        <time>2003-07-21T21:35:24Z</time>
      </trkpt>
      <trkpt lat="41.96637" lon="9.21304">
        <ele>1147</ele>
        <time>2003-07-21T21:35:24Z</time>
      </trkpt>
      <trkpt lat="41.96715" lon="9.21061">
        <ele>1146</ele>
        <time>2003-07-21T21:35:24Z</time>
      </trkpt>
      <trkpt lat="41.96812" lon="9.21114">
        <ele>1157</ele>
        <time>2003-07-21T21:35:24Z</time>
      </trkpt>
      <trkpt lat="41.96956" lon="9.20815">
        <ele>1161</ele>
        <time>2003-07-21T21:35:24Z</time>
      </trkpt>
      <trkpt lat="41.96853" lon="9.20679">
        <ele>1149</ele>
        <time>2003-07-21T21:35:24Z</time>
      </trkpt>
      <trkpt lat="41.97055" lon="9.20141">
        <ele>1153</ele>
        <time>2003-07-21T21:35:24Z</time>
      </trkpt>
      <trkpt lat="41.97101" lon="9.20207">
        <ele>1167</ele>
        <time>2003-07-21T21:35:24Z</time>
      </trkpt>
      <trkpt lat="41.9715" lon="9.20188">
        <ele>1151</ele>
        <time>2003-07-21T21:35:24Z</time>
      </trkpt>
      <trkpt lat="41.97181" lon="9.20261">
        <ele>1158</ele>
        <time>2003-07-21T21:35:24Z</time>
      </trkpt>
      <trkpt lat="41.97432" lon="9.20215">
        <ele>1147</ele>
        <time>2003-07-21T21:35:24Z</time>
      </trkpt>
      <trkpt lat="41.97556" lon="9.20486">
        <ele>1158</ele>
        <time>2003-07-21T21:35:24Z</time>
      </trkpt>
      <trkpt lat="41.97634" lon="9.20431">
        <ele>1134</ele>
        <time>2003-07-21T21:35:24Z</time>
      </trkpt>
      <trkpt lat="41.97636" lon="9.20549">
        <ele>1164</ele>
        <time>2003-07-21T21:35:24Z</time>
      </trkpt>
      <trkpt lat="41.97809" lon="9.20456">
        <ele>1135</ele>
        <time>2003-07-21T21:35:24Z</time>
      </trkpt>
      <trkpt lat="41.97862" lon="9.20613">
        <ele>1146</ele>
        <time>2003-07-21T21:35:24Z</time>
      </trkpt>
      <trkpt lat="41.97882" lon="9.20204">
        <ele>1145</ele>
        <time>2003-07-21T21:35:24Z</time>
      </trkpt>
      <trkpt lat="41.98003" lon="9.20035">
        <ele>1169</ele>
        <time>2003-07-21T21:35:24Z</time>
      </trkpt>
      <trkpt lat="41.9847" lon="9.20231">
        <ele>1211</ele>
        <time>2003-07-21T21:35:24Z</time>
      </trkpt>
      <trkpt lat="41.9853" lon="9.20207">
        <ele>1200</ele>
        <time>2003-07-21T21:35:24Z</time>
      </trkpt>
      <trkpt lat="41.98399" lon="9.19839">
        <ele>1211</ele>
        <time>2003-07-21T21:35:24Z</time>
      </trkpt>
      <trkpt lat="41.98737" lon="9.19851">
        <ele>1259</ele>
        <time>2003-07-21T21:35:24Z</time>
      </trkpt>
      <trkpt lat="41.98876" lon="9.19827">
        <ele>1262</ele>
        <time>2003-07-21T21:35:24Z</time>
      </trkpt>
      <trkpt lat="41.99236" lon="9.19896">
        <ele>1292</ele>
        <time>2003-07-21T21:35:24Z</time>
      </trkpt>
      <trkpt lat="41.99366" lon="9.20085">
        <ele>1315</ele>
        <time>2003-07-21T21:35:24Z</time>
      </trkpt>
      <trkpt lat="41.9951" lon="9.20022">
        <ele>1313</ele>
        <time>2003-07-21T21:35:24Z</time>
      </trkpt>
      <trkpt lat="41.99571" lon="9.20107">
        <ele>1321</ele>
        <time>2003-07-21T21:35:24Z</time>
      </trkpt>
      <trkpt lat="41.99731" lon="9.20037">
        <ele>1328</ele>
        <time>2003-07-21T21:35:24Z</time>
      </trkpt>
      <trkpt lat="41.99574" lon="9.20168">
        <ele>1339</ele>
        <time>2003-07-21T21:35:24Z</time>
      </trkpt>
      <trkpt lat="41.99665" lon="9.20157">
        <ele>1361</ele>
        <time>2003-07-21T21:35:24Z</time>
      </trkpt>
      <trkpt lat="41.99953" lon="9.20125">
        <ele>1364</ele>
        <time>2003-07-21T21:35:24Z</time>
      </trkpt>
      <trkpt lat="42.00035" lon="9.20046">
        <ele>1360</ele>
        <time>2003-07-21T21:35:24Z</time>
      </trkpt>
      <trkpt lat="42.00279" lon="9.20311">
        <ele>1340</ele>
        <time>2003-07-21T21:35:24Z</time>
      </trkpt>
      <trkpt lat="42.00423" lon="9.20051">
        <ele>1327</ele>
        <time>2003-07-21T21:35:24Z</time>
      </trkpt>
      <trkpt lat="42.00549" lon="9.20059">
        <ele>1320</ele>
        <time>2003-07-21T21:35:24Z</time>
      </trkpt>
      <trkpt lat="42.00692" lon="9.19859">
        <ele>1306</ele>
        <time>2003-07-21T21:35:24Z</time>
      </trkpt>
      <trkpt lat="42.00893" lon="9.19866">
        <ele>1299</ele>
        <time>2003-07-21T21:35:24Z</time>
      </trkpt>
      <trkpt lat="42.00899" lon="9.19842">
        <ele>1296</ele>
        <time>2003-07-21T21:35:24Z</time>
      </trkpt>
      <trkpt lat="42.01231" lon="9.19869">
        <ele>1305</ele>
        <time>2003-07-21T21:35:24Z</time>
      </trkpt>
      <trkpt lat="42.01278" lon="9.19959">
        <ele>1311</ele>
        <time>2003-07-21T21:35:24Z</time>
      </trkpt>
      <trkpt lat="42.01569" lon="9.19839">
        <ele>1311</ele>
        <time>2003-07-21T21:35:24Z</time>
      </trkpt>
      <trkpt lat="42.01627" lon="9.19742">
        <ele>1310</ele>
        <time>2003-07-21T21:35:24Z</time>
      </trkpt>
      <trkpt lat="42.0172" lon="9.19707">
        <ele>1316</ele>
        <time>2003-07-21T21:35:24Z</time>
      </trkpt>
      <trkpt lat="42.01877" lon="9.1976">
        <ele>1310</ele>
        <time>2003-07-21T21:35:24Z</time>
      </trkpt>
      <trkpt lat="42.01868" lon="9.20026">
        <ele>1316</ele>
        <time>2003-07-21T21:35:24Z</time>
      </trkpt>
      <trkpt lat="42.02035" lon="9.19983">
        <ele>1312</ele>
        <time>2003-07-21T21:35:24Z</time>
      </trkpt>
      <trkpt lat="42.02088" lon="9.20146">
        <ele>1321</ele>
        <time>2003-07-21T21:35:24Z</time>
      </trkpt>
      <trkpt lat="42.0217" lon="9.20173">
        <ele>1313</ele>
        <time>2003-07-21T21:35:24Z</time>
      </trkpt>
      <trkpt lat="42.02126" lon="9.20078">
        <ele>1300</ele>
        <time>2003-07-21T21:35:24Z</time>
      </trkpt>
      <trkpt lat="42.02372" lon="9.1978">
        <ele>1323</ele>
        <time>2003-07-21T21:35:24Z</time>
      </trkpt>
      <trkpt lat="42.02451" lon="9.19752">
        <ele>1326</ele>
        <time>2003-07-21T21:35:24Z</time>
      </trkpt>
      <trkpt lat="42.02828" lon="9.19484">
        <ele>1291</ele>
        <time>2003-07-21T21:35:24Z</time>
      </trkpt>
      <trkpt lat="42.03161" lon="9.1992">
        <ele>1267</ele>
        <time>2003-07-21T21:35:24Z</time>
      </trkpt>
      <trkpt lat="42.03316" lon="9.19891">
        <ele>1242</ele>
        <time>2003-07-21T21:35:24Z</time>
      </trkpt>
      <trkpt lat="42.03442" lon="9.20096">
        <ele>1243</ele>
        <time>2003-07-21T21:35:24Z</time>
      </trkpt>
      <trkpt lat="42.03122" lon="9.19546">
        <ele>1193</ele>
        <time>2003-07-21T21:35:24Z</time>
      </trkpt>
      <trkpt lat="42.03314" lon="9.19367">
        <ele>1189</ele>
        <time>2003-07-21T21:35:24Z</time>
      </trkpt>
      <trkpt lat="42.03692" lon="9.19305">
        <ele>1140</ele>
        <time>2003-07-21T21:35:24Z</time>
      </trkpt>
      <trkpt lat="42.03389" lon="9.19478">
        <ele>1131</ele>
        <time>2003-07-21T21:35:24Z</time>
      </trkpt>
      <trkpt lat="42.03616" lon="9.1986">
        <ele>1108</ele>
        <time>2003-07-21T21:35:24Z</time>
      </trkpt>
      <trkpt lat="42.03789" lon="9.19985">
        <ele>1078</ele>
        <time>2003-07-21T21:35:24Z</time>
      </trkpt>
      <trkpt lat="42.03735" lon="9.2007">
        <ele>1083</ele>
        <time>2003-07-21T21:35:24Z</time>
      </trkpt>
      <trkpt lat="42.03864" lon="9.20214">
        <ele>1072</ele>
        <time>2003-07-21T21:35:24Z</time>
      </trkpt>
      <trkpt lat="42.04285" lon="9.20196">
        <ele>1023</ele>
        <time>2003-07-21T21:35:24Z</time>
      </trkpt>
      <trkpt lat="42.0394" lon="9.20041">
        <ele>1010</ele>
        <time>2003-07-21T21:35:24Z</time>
      </trkpt>
      <trkpt lat="42.03932" lon="9.19822">
        <ele>985</ele>
        <time>2003-07-21T21:35:24Z</time>
      </trkpt>
      <trkpt lat="42.03887" lon="9.19711">
        <ele>988</ele>
        <time>2003-07-21T21:35:24Z</time>
      </trkpt>
      <trkpt lat="42.03985" lon="9.19664">
        <ele>979</ele>
        <time>2003-07-21T21:35:24Z</time>
      </trkpt>
      <trkpt lat="42.03977" lon="9.19375">
        <ele>975</ele>
        <time>2003-07-21T21:35:24Z</time>
      </trkpt>
      <trkpt lat="42.04476" lon="9.19502">
        <ele>949</ele>
        <time>2003-07-21T21:35:24Z</time>
      </trkpt>
      <trkpt lat="42.04927" lon="9.19578">
        <ele>913</ele>
        <time>2003-07-21T21:35:24Z</time>
      </trkpt>
      <trkpt lat="42.05462" lon="9.19542">
        <ele>861</ele>
        <time>2003-07-21T21:35:24Z</time>
      </trkpt>
      <trkpt lat="42.05671" lon="9.19264">
        <ele>851</ele>
        <time>2003-07-21T21:35:24Z</time>
      </trkpt>
      <trkpt lat="42.05929" lon="9.19522">
        <ele>837</ele>
        <time>2003-07-21T21:35:24Z</time>
      </trkpt>
      <trkpt lat="42.06274" lon="9.19142">
        <ele>833</ele>
        <time>2003-07-21T21:35:24Z</time>
      </trkpt>
      <trkpt lat="42.06682" lon="9.19316">
        <ele>818</ele>
        <time>2003-07-21T21:35:24Z</time>
      </trkpt>
      <trkpt lat="42.06886" lon="9.19153">
        <ele>817</ele>
        <time>2003-07-21T21:35:24Z</time>
      </trkpt>
      <trkpt lat="42.06938" lon="9.18507">
        <ele>801</ele>
        <time>2003-07-21T21:35:24Z</time>
      </trkpt>
      <trkpt lat="42.07033" lon="9.18423">
        <ele>790</ele>
        <time>2003-07-21T21:35:24Z</time>
      </trkpt>
      <trkpt lat="42.07266" lon="9.19173">
        <ele>786</ele>
        <time>2003-07-21T21:35:24Z</time>
      </trkpt>
      <trkpt lat="42.07546" lon="9.19367">
        <ele>783</ele>
        <time>2003-07-21T21:35:24Z</time>
      </trkpt>
      <trkpt lat="42.07647" lon="9.19302">
        <ele>769</ele>
        <time>2003-07-21T21:35:24Z</time>
      </trkpt>
      <trkpt lat="42.07841" lon="9.18999">
        <ele>748</ele>
        <time>2003-07-21T21:35:24Z</time>
      </trkpt>
      <trkpt lat="42.08004" lon="9.19071">
        <ele>743</ele>
        <time>2003-07-21T21:35:24Z</time>
      </trkpt>
      <trkpt lat="42.07855" lon="9.19255">
        <ele>741</ele>
        <time>2003-07-21T21:35:24Z</time>
      </trkpt>
      <trkpt lat="42.08077" lon="9.1947">
        <ele>736</ele>
        <time>2003-07-21T21:35:24Z</time>
      </trkpt>
      <trkpt lat="42.08414" lon="9.19609">
        <ele>747</ele>
        <time>2003-07-21T21:35:24Z</time>
      </trkpt>
      <trkpt lat="42.08584" lon="9.19752">
        <ele>744</ele>
        <time>2003-07-21T21:35:24Z</time>
      </trkpt>
      <trkpt lat="42.0859" lon="9.19626">
        <ele>750</ele>
        <time>2003-07-21T21:35:24Z</time>
      </trkpt>
      <trkpt lat="42.08901" lon="9.19626">
        <ele>754</ele>
        <time>2003-07-21T21:35:24Z</time>
      </trkpt>
      <trkpt lat="42.08929" lon="9.19842">
        <ele>738</ele>
        <time>2003-07-21T21:35:24Z</time>
      </trkpt>
      <trkpt lat="42.09069" lon="9.19729">
        <ele>753</ele>
        <time>2003-07-21T21:35:24Z</time>
      </trkpt>
      <trkpt lat="42.0915" lon="9.19783">
        <ele>752</ele>
        <time>2003-07-21T21:35:24Z</time>
      </trkpt>
      <trkpt lat="42.09091" lon="9.19841">
        <ele>734</ele>
        <time>2003-07-21T21:35:24Z</time>
      </trkpt>
      <trkpt lat="42.09064" lon="9.20177">
        <ele>740</ele>
        <time>2003-07-21T21:35:24Z</time>
      </trkpt>
      <trkpt lat="42.09132" lon="9.20345">
        <ele>738</ele>
        <time>2003-07-21T21:35:24Z</time>
      </trkpt>
      <trkpt lat="42.09283" lon="9.20372">
        <ele>740</ele>
        <time>2003-07-21T21:35:24Z</time>
      </trkpt>
      <trkpt lat="42.09324" lon="9.20536">
        <ele>732</ele>
        <time>2003-07-21T21:35:24Z</time>
      </trkpt>
      <trkpt lat="42.09323" lon="9.20663">
        <ele>732</ele>
        <time>2003-07-21T21:35:24Z</time>
      </trkpt>
      <trkpt lat="42.09509" lon="9.2093">
        <ele>736</ele>
        <time>2003-07-21T21:35:24Z</time>
      </trkpt>
      <trkpt lat="42.09511" lon="9.20979">
        <ele>734</ele>
        <time>2003-07-21T21:35:24Z</time>
      </trkpt>
      <trkpt lat="42.09448" lon="9.21024">
        <ele>726</ele>
        <time>2003-07-21T21:35:24Z</time>
      </trkpt>
      <trkpt lat="42.09442" lon="9.21065">
        <ele>728</ele>
        <time>2003-07-21T21:35:24Z</time>
      </trkpt>
      <trkpt lat="42.09517" lon="9.21332">
        <ele>718</ele>
        <time>2003-07-21T21:35:24Z</time>
      </trkpt>
      <trkpt lat="42.09545" lon="9.21431">
        <ele>707</ele>
        <time>2003-07-21T21:35:24Z</time>
      </trkpt>
      <trkpt lat="42.09653" lon="9.21286">
        <ele>714</ele>
        <time>2003-07-21T21:35:24Z</time>
      </trkpt>
      <trkpt lat="42.09817" lon="9.21249">
        <ele>684</ele>
        <time>2003-07-21T21:35:24Z</time>
      </trkpt>
      <trkpt lat="42.09753" lon="9.21185">
        <ele>695</ele>
        <time>2003-07-21T21:35:24Z</time>
      </trkpt>
      <trkpt lat="42.09757" lon="9.21153">
        <ele>694</ele>
        <time>2003-07-21T21:35:24Z</time>
      </trkpt>
      <trkpt lat="42.10102" lon="9.21058">
        <ele>673</ele>
        <time>2003-07-21T21:35:24Z</time>
      </trkpt>
      <trkpt lat="42.10276" lon="9.21109">
        <ele>657</ele>
        <time>2003-07-21T21:35:24Z</time>
      </trkpt>
      <trkpt lat="42.10305" lon="9.21139">
        <ele>655</ele>
        <time>2003-07-21T21:35:24Z</time>
      </trkpt>
    </trkseg>
  </trk>
</gpx>